SCP
0 0 0 0 0 0 0 0 0 0 0 0 0 1 1 1 1 1 1 1 1 1 1 2 2 2 2 2 2 1 1 1 1 1 1 1 0 0 0 0 0 0 0 0
0 0 0 0 0 0 0 0 0 0 0 0 0 1 1 1 1 1 1 1 1 1 1 1 2 2 2 1 1 1 1 1 1 1 1 1 0 0 0 0 0 0 0 0
0 -0 -0 -0 -0 0 0 0 0 0 0 0 0 0 1 0 0 1 1 1 1 1 1 1 1 1 1 1 1 1 1 1 1 1 1 0 0 0 0 0 0 0 0 0
0 0 -0 -0 0 0 0 0 0 0 0 0 0 0 0 0 0 0 1 1 1 1 1 1 1 1 1 1 1 1 1 1 1 1 0 0 0 0 0 0 0 0 0 0
0 0 0 0 0 0 0 0 0 0 0 0 0 0 0 0 0 0 0 1 1 1 1 1 1 1 1 1 1 1 1 0 0 0 0 0 0 0 0 0 0 0 0 0
0 0 0 0 -0 -0 0 0 0 0 0 0 0 0 0 0 0 0 0 1 1 1 1 1 1 1 0 0 0 1 0 0 0 0 0 0 0 0 0 0 0 0 0 0
0 0 0 0 -0 -0 0 0 0 0 0 0 0 0 0 0 0 0 0 0 0 0 0 0 0 0 0 0 0 0 0 0 0 0 0 0 0 0 0 0 0 0 0 0
0 0 0 0 -0 -0 0 0 0 0 0 0 0 0 0 0 0 0 0 0 0 0 0 0 0 0 0 0 0 0 0 0 0 0 0 0 0 0 0 0 0 0 0 0
0 0 0 0 0 0 0 0 0 0 0 0 0 0 0 0 0 0 0 0 0 0 0 0 0 0 0 0 0 0 0 0 0 0 0 0 0 0 0 0 0 0 0 0
0 0 0 0 0 0 0 0 0 0 -0 0 0 0 0 0 0 0 0 0 0 0 0 0 0 0 0 0 0 0 0 0 0 0 0 0 0 0 0 0 0 0 0 0
0 0 0 0 0 0 0 0 0 0 0 -0 -0 0 0 0 0 0 0 0 0 0 0 0 0 0 0 0 0 0 0 0 0 0 0 0 0 0 0 0 0 0 0 0
0 0 0 0 0 0 0 0 0 0 0 0 0 0 0 0 0 0 0 0 0 0 0 0 0 0 0 0 0 0 0 0 0 0 0 0 0 0 0 0 0 0 0 0
0 0 0 0 0 0 0 0 0 0 0 0 0 0 0 0 0 0 0 0 0 0 0 0 0 0 0 0 0 0 0 0 0 0 0 0 0 0 0 0 0 0 0 0
0 0 0 0 0 0 0 0 0 0 0 0 0 0 0 0 0 0 0 0 0 0 0 0 0 0 0 0 0 0 0 0 0 0 0 0 0 -0 -0 0 0 0 0 0
0 0 0 0 0 0 0 0 0 0 0 0 0 0 0 0 0 0 0 0 0 0 0 0 0 0 0 0 0 0 0 0 0 0 0 0 0 0 0 0 0 0 0 0
0 0 0 0 0 0 0 0 0 0 0 0 0 0 0 0 0 0 0 0 0 0 0 0 0 0 0 0 0 0 0 0 0 0 0 0 0 0 0 0 0 0 0 0
0 0 0 0 0 0 0 0 0 0 0 0 0 0 0 0 0 0 0 0 0 0 0 0 0 0 0 0 0 0 0 0 0 0 0 0 0 0 0 0 0 0 0 0
0 0 0 0 0 0 0 0 0 0 0 0 0 0 0 0 0 0 0 0 0 0 0 0 0 0 0 0 0 0 0 0 0 0 0 0 0 0 0 0 0 0 0 0
0 0 0 0 0 0 0 0 0 0 0 0 0 0 0 0 0 0 0 0 0 0 0 0 0 0 0 0 0 0 0 0 0 0 0 0 0 0 0 0 0 0 0 0
0 0 0 0 0 0 0 0 0 0 0 0 0 0 0 0 0 0 0 0 0 0 0 0 0 0 0 0 0 0 0 0 0 0 0 0 0 0 0 0 0 0 0 0
0 0 0 0 0 0 0 -0 0 0 0 0 0 0 0 0 0 0 0 0 0 0 0 0 0 0 0 0 0 0 0 0 0 0 0 0 0 0 0 0 0 0 0 0
0 0 0 0 0 0 0 0 0 0 0 0 0 0 0 0 0 0 0 0 0 0 0 0 0 0 0 0 0 0 0 0 0 0 0 0 0 0 0 0 0 -0 0 0
0 0 0 0 0 0 0 0 0 0 0 0 0 0 0 0 0 0 0 0 0 0 0 0 0 0 0 0 0 0 0 0 0 0 0 0 0 0 0 0 0 0 0 0
0 0 0 0 0 0 0 0 0 0 0 0 0 0 0 0 0 0 0 0 0 0 0 0 0 0 0 0 0 0 0 0 0 0 0 0 0 0 0 0 -0 -0 -0 0
0 0 0 0 0 0 0 0 0 0 0 0 0 0 0 0 0 0 0 0 0 0 0 0 0 0 0 -0 -0 0 0 0 0 0 0 0 0 0 0 0 -0 -0 -0 0
0 0 0 0 0 0 0 0 0 0 0 0 0 0 0 0 0 0 0 0 0 0 0 0 0 0 -0 -0 -0 0 0 0 0 0 0 0 0 -0 -0 0 -0 -0 -0 0
Wind_Speed
2 2 5 9 10 9 6 7 10 12 9 1 3 4 3 5 9 9 9 9 9 8 7 8 9 9 7 5 5 4 5 4 5 5 5 5 5 5 5 5 6 6 5 5
4 6 14 11 8 7 8 9 10 10 6 3 6 6 5 8 8 8 10 10 10 8 9 9 9 9 7 7 6 5 4 3 3 4 4 5 6 6 5 5 7 8 7 6
7 11 8 7 9 8 8 7 6 5 4 5 6 5 4 6 9 10 11 11 11 10 9 9 10 9 8 7 6 5 4 4 4 5 6 7 6 5 5 6 6 8 8 8
7 9 7 6 7 5 6 6 4 2 3 3 2 1 1 4 7 8 8 9 10 10 9 9 9 8 7 7 6 5 5 5 5 6 7 8 7 6 5 5 6 8 9 9
7 6 5 6 6 4 5 4 1 1 1 2 2 3 3 2 5 5 7 8 10 10 9 9 9 7 7 8 7 7 7 7 7 8 9 10 9 8 7 7 8 8 8 9
8 5 4 5 5 3 2 4 6 5 5 2 3 3 3 3 5 8 8 9 9 9 9 10 9 8 8 8 7 7 9 10 10 10 10 11 12 11 10 9 8 6 6 6
7 7 4 2 4 6 4 6 4 5 4 5 3 2 2 1 5 10 11 9 9 9 8 9 10 9 9 9 9 9 11 11 11 12 12 11 11 11 11 9 8 7 6 6
2 7 5 1 2 2 1 7 6 4 3 4 2 2 2 6 10 12 11 10 10 9 9 9 9 9 9 10 10 10 11 11 11 12 11 10 10 8 8 9 8 7 6 6
4 6 5 4 3 4 1 2 7 6 2 1 1 3 3 6 10 11 11 10 10 10 10 10 9 10 10 11 10 10 11 12 12 12 12 12 11 11 10 9 8 7 6 6
5 4 5 5 3 1 4 3 3 4 3 2 1 2 3 8 10 10 10 10 10 9 10 10 9 10 10 10 10 10 11 12 11 10 10 10 10 10 9 8 8 8 7 6
3 2 5 4 1 1 3 1 2 3 4 5 2 2 2 8 10 11 11 11 11 10 10 9 9 9 9 9 9 10 10 11 11 11 10 10 9 9 9 8 8 7 7 7
2 4 2 6 5 1 2 2 4 3 1 2 3 2 4 7 10 12 12 11 11 11 10 10 9 9 9 9 9 9 9 10 10 10 10 9 9 8 8 8 7 7 7 7
4 5 3 8 7 7 4 2 2 4 4 3 3 1 4 10 11 11 12 12 11 11 11 10 9 9 9 9 9 9 9 8 8 9 9 9 8 8 7 7 6 7 7 7
6 5 5 3 3 3 4 5 4 4 4 4 4 7 7 10 11 11 12 12 11 11 10 10 9 9 8 8 8 9 8 7 8 8 8 8 7 7 6 6 6 6 6 7
5 3 2 2 3 1 1 4 6 4 4 6 7 8 9 10 11 11 12 12 12 12 11 10 9 8 7 7 7 7 7 6 7 7 7 6 6 6 6 6 6 6 6 6
4 3 1 1 1 3 5 6 6 4 5 8 9 5 6 9 9 10 11 12 13 12 11 10 9 9 7 7 7 7 6 5 6 6 6 5 5 6 5 5 5 5 5 5
3 4 2 1 2 2 4 3 2 3 3 6 5 5 11 10 11 11 11 11 12 12 11 10 9 7 7 6 6 6 5 5 6 5 5 4 4 5 4 4 4 4 3 3
6 4 3 1 3 3 3 1 6 7 6 5 8 10 9 9 8 7 8 11 11 11 10 8 7 7 6 5 4 4 4 5 5 4 4 4 4 4 4 4 3 2 2 2
6 7 4 3 2 1 2 2 5 6 4 4 11 11 11 12 9 6 5 9 10 9 9 7 6 6 5 5 4 5 5 4 5 4 4 4 4 4 3 3 2 1 1 1
4 5 5 4 3 2 2 1 6 9 4 4 9 12 12 9 5 5 7 10 11 10 8 7 5 5 5 4 5 6 5 5 4 4 4 4 4 3 3 2 1 0 1 1
2 3 3 3 2 1 2 1 3 3 6 7 8 10 9 4 4 10 11 10 10 9 8 7 6 5 4 4 6 6 5 4 4 4 4 3 3 2 2 1 1 1 1 1
4 3 2 3 2 3 4 2 3 4 5 8 7 7 7 8 12 13 11 11 10 9 8 7 6 5 4 5 6 6 4 3 3 3 3 2 2 2 2 2 2 2 2 2
3 5 5 4 4 2 2 4 4 7 9 6 7 8 12 13 13 12 11 10 9 8 7 6 6 5 4 4 6 5 3 3 3 3 2 1 2 2 2 3 3 3 3 3
2 4 6 5 4 5 7 7 7 9 9 9 11 12 13 13 13 12 10 9 8 7 7 6 6 6 4 4 4 4 3 3 3 2 1 0 1 2 2 2 3 3 2 2
6 5 6 6 6 7 6 8 11 12 13 13 12 11 12 14 13 11 9 8 7 6 5 5 6 6 5 4 3 3 2 3 2 1 1 1 1 2 2 2 1 2 2 3
3 7 9 8 10 8 7 8 13 14 13 14 14 11 10 11 11 10 8 7 7 7 5 5 5 5 5 4 3 3 3 3 2 1 1 1 1 2 2 2 1 1 1 2
Wind_Direction
268 111 242 239 219 218 248 272 282 280 287 312 135 119 76 76 87 92 92 94 91 84 76 69 65 65 64 70 89 112 139 150 142 135 131 122 106 91 79 71 64 67 71 76
345 260 241 241 244 239 253 268 277 293 331 50 104 93 76 70 78 91 103 102 95 82 70 64 63 62 59 66 64 60 72 92 107 119 119 110 107 96 84 68 57 49 54 58
230 251 259 253 256 255 261 249 253 280 348 35 87 51 57 71 73 78 85 92 90 87 78 68 70 65 59 53 48 42 33 64 68 101 110 109 100 89 79 64 57 48 51 58
248 260 277 273 265 249 266 259 240 288 3 303 79 126 274 106 82 78 81 84 86 87 81 76 77 72 61 55 55 50 38 49 62 87 109 114 114 107 91 84 75 61 54 56
265 281 292 280 266 265 253 261 290 349 22 337 17 121 252 139 110 108 99 91 87 84 83 76 70 70 62 57 53 54 52 54 58 75 95 102 102 102 99 89 79 70 60 56
258 269 246 248 274 271 286 14 17 33 58 335 260 150 247 222 170 138 115 97 88 82 77 70 62 57 59 55 53 56 61 62 64 73 80 95 104 107 104 98 91 78 69 60
313 310 297 276 324 336 45 70 27 360 5 266 286 120 248 270 122 127 121 105 90 82 78 73 65 59 58 57 55 61 69 66 66 74 77 84 92 95 98 99 96 91 80 70
288 296 290 304 186 245 252 136 157 199 230 280 352 102 57 79 91 98 102 99 90 79 73 69 64 64 65 62 61 66 71 72 71 76 78 77 81 86 86 87 92 88 85 80
206 262 282 283 248 176 237 212 177 153 201 271 250 121 110 103 104 105 104 99 92 85 78 74 68 64 65 66 63 70 77 78 75 77 80 79 81 86 89 88 88 88 84 82
176 259 291 305 345 296 176 187 89 112 147 249 250 169 178 164 147 128 115 108 101 93 85 78 74 73 72 72 72 71 75 79 79 79 82 87 83 86 89 90 85 83 78 77
148 186 309 347 18 287 349 16 117 127 155 159 205 260 295 179 157 138 125 118 112 104 96 88 82 80 81 79 77 77 77 80 80 81 83 85 83 84 84 84 82 81 77 75
137 116 294 279 266 248 157 191 138 142 240 147 147 269 360 123 127 126 121 117 113 108 102 96 92 87 82 81 81 82 81 83 85 87 86 84 82 80 80 80 79 79 78 75
120 97 20 346 352 6 19 350 123 139 124 136 139 172 78 107 114 119 120 121 117 112 106 99 94 90 87 87 87 86 85 85 87 89 89 86 83 81 80 79 77 77 80 79
111 102 144 184 241 289 324 349 10 109 128 144 157 150 142 131 130 127 125 124 118 113 109 105 98 94 90 87 89 91 90 91 93 92 91 88 86 85 83 79 76 79 85 87
93 116 186 231 247 228 54 28 26 59 140 151 159 153 157 152 145 138 132 128 123 119 115 111 106 101 97 93 91 92 93 91 96 95 92 91 92 88 81 76 77 78 82 92
96 131 126 353 7 77 76 55 50 54 81 114 121 108 126 127 128 135 138 136 131 128 124 118 113 108 102 100 100 99 98 96 96 97 97 96 92 88 85 84 82 79 80 86
116 121 95 339 333 62 43 31 68 70 82 131 139 139 138 138 144 148 146 141 137 134 130 124 120 116 111 107 107 109 108 105 103 105 105 101 99 97 95 94 85 86 90 96
131 114 115 91 43 67 276 90 107 91 58 92 111 127 134 133 121 117 133 136 134 133 129 123 119 114 109 110 110 108 104 108 110 109 110 109 109 104 99 95 97 102 104 110
138 134 124 113 93 132 167 180 153 120 83 107 124 125 119 116 102 95 117 126 129 128 126 122 121 117 113 116 117 107 100 104 106 107 109 110 108 104 104 102 105 113 113 118
94 103 115 121 128 177 240 201 134 105 121 156 139 142 144 138 139 151 137 125 124 123 124 125 120 110 110 113 108 100 100 103 108 111 111 110 106 108 114 130 148 140 141 156
79 56 94 121 121 213 310 191 135 138 196 164 155 155 158 157 149 136 131 125 126 127 128 124 119 116 121 115 105 104 108 114 124 116 105 100 106 123 139 122 58 75 84 92
145 131 122 119 126 239 308 69 134 173 127 135 142 147 132 118 120 126 130 130 131 129 125 123 120 122 122 116 112 111 116 125 113 104 98 94 96 107 111 91 52 52 64 64
116 157 143 139 178 221 61 106 115 118 119 121 129 130 127 126 130 130 130 132 131 131 128 125 126 124 119 121 120 120 140 130 110 102 98 86 74 81 92 96 81 59 57 64
111 108 99 95 111 108 98 97 94 105 111 117 124 128 132 130 131 129 131 131 131 129 131 128 124 123 125 131 133 145 158 138 122 131 153 118 101 86 84 89 96 92 82 77
161 112 98 103 130 105 97 114 114 108 109 112 114 119 124 126 128 129 131 133 133 131 134 132 135 142 151 151 154 170 165 136 133 173 223 205 156 146 134 113 115 133 161 168
173 145 148 178 179 147 148 138 127 123 124 127 124 117 120 126 128 127 130 133 134 137 139 140 148 156 163 162 179 204 193 168 163 193 227 216 183 171 158 146 69 23 179 165